www.pogodaiklimat.ru

Погода и климат >> Архив погоды >> Казахстан >> Тайпак


ПОГОДА в Тайпаке

АРХИВ ПОГОДЫ в Тайпаке

Время (UTC), дата Ветер
(напр.,м/с)
 
Видим.   Явления Облачность Т
(С)
Тd
(С)
f
(%)
Тe
(С)
Тes
(С)
Комфортность P
(гПа)
Po
(гПа)
Тmin
(С)
Tmax
(С)
R
(мм)
R24
(мм)
S
(см)
00 14.02 В 2 н/о ясно -18.7 -21.0 82 -24 -24 1029.5 1029.3
03 14.02 СВ 1 н/о [диам. изморози 2 мм] ясно -19.8 -22.5 79 -23 -23 1029.9 1029.7 6
06 14.02 В 2 10 км [диам. изморози 2 мм] 4/0
[Ac trans]
-15.3 -18.6 76 -20 -18 1031.6 1031.4 -19.8
09 14.02 В 2 10 км 3/0
[Ci fib]
-8.9 -15.1 61 -13 -8 1032.7 1032.5
12 14.02 В 1 10 км 4/0
[Ci fib]
-8.2 -14.7 59 -10 -9 1032.9 1032.7
15 14.02 СВ 2 н/о 4/0
[Ci fib]
-13.3 -15.7 82 -18 -18 1034.0 1033.8 -7.4
18 14.02 СВ 1 н/о ясно -14.5 -16.5 85 -17 -17 1035.2 1035.0 -7.4
21 14.02 СВ 1 н/о ясно -15.4 -17.3 85 -18 -18 1035.6 1035.4
00 15.02 СВ 2 н/о ясно -16.0 -17.8 86 -21 -21 1036.1 1035.9
03 15.02 СВ 1 н/о [диам. изморози 2 мм] ясно -18.5 -20.8 82 -21 -21 1037.4 1037.2 6
06 15.02 СВ 1 10 км [диам. изморози 2 мм] ясно -15.9 -18.4 81 -19 -15 1038.9 1038.7 -18.5
09 15.02 СВ 2 10 км 4/0
[Ac trans]
-8.2 -13.5 66 -12 -9 1039.9 1039.7
12 15.02 СВ 2 10 км 4/0
[Ac trans]
-7.1 -13.1 62 -11 -10 1040.3 1040.1
15 15.02 СВ 2 н/о ясно -12.5 -14.2 87 -17 -17 1041.1 1040.9 -6.1
18 15.02 В 2 н/о ясно -15.0 -16.8 86 -20 -20 1041.6 1041.4 -6.1
21 15.02 СВ 1 н/о ясно -16.8 -18.7 85 -20 -20 1042.0 1041.8
00 16.02 СВ 2 н/о [диам. изморози 2 мм] ясно -17.1 -19.0 85 1042.3 1042.1
03 16.02 В 2 н/о [диам. изморози 9 мм] ясно -19.3 -21.6 82 -25 -25 1042.8 1042.6 6
06 16.02 В 1 10 км {туман} [диам. изморози 12 мм] ясно -14.8 -17.0 83 -17 -14 1043.8 1043.6 -19.3
09 16.02 СВ 2 10 км 5/0
[Ac trans]
-8.2 -12.0 74 -13 -9 1043.4 1043.2
12 16.02 СВ 1 10 км ясно -7.0 -11.9 68 -9 -8 1043.0 1042.8
15 16.02 штиль 0 н/о 3/0
[Ci fib]
-12.7 -14.6 86 -13 -13 1042.9 1042.7 -6.2
18 16.02 СВ 2 н/о ясно -12.6 -14.5 86 -17 -17 1042.3 1042.1 -6.2
21 16.02 СВ 2 н/о ясно -14.5 -16.6 84 -19 -19 1041.5 1041.3
00 17.02 СВ 2 н/о ясно -16.2 -18.4 83 -21 -21 1041.3 1041.1
03 17.02 штиль 0 н/о [диам. изморози 2 мм] ясно -17.2 -19.5 82 -17 -17 1040.6 1040.4 6
06 17.02 В 1 10 км 3/0
[Ci fib]
-13.6 -16.9 76 -16 -13 1040.6 1040.4 -17.3
09 17.02 В 3 10 км 4/0
[Ci fib]
-5.5 -11.3 64 -11 -7 1039.4 1039.2
12 17.02 В 3 10 км 4/0
[Ci fib]
-3.0 -10.4 57 -8 -7 1037.6 1037.4
15 17.02 В 3 н/о 4/0
[Ci fib]
-7.9 -12.1 72 -14 -14 1036.9 1036.7 -2.8
18 17.02 В 4 н/о ясно -11.3 -13.8 82 -18 -18 1036.2 1036.0 -2.8
21 17.02 В 3 н/о ясно -12.0 -15.1 78 -18 -18 1035.5 1035.3
00 18.02 В 3 н/о ясно -13.0 -16.2 77 -19 -19 1034.5 1034.3
03 18.02 В 4 н/о 6/0
[Ci fib]
-13.1 -16.4 76 -20 -20 1033.6 1033.4 6
06 18.02 В 6 10 км 9/0
[Ac trans]
-8.4 -12.2 74 -17 -16 1033.5 1033.3 -13.3
09 18.02 В 7 10 км 10/10 600 м
[Sc]
-4.8 -9.3 71 -13 -13 1031.8 1031.6
12 18.02 В 7 10 км 10/10 600 м
[Sc]
-4.1 -8.8 70 -12 -12 1031.1 1030.9
15 18.02 В 6 н/о 10/10 600 м
[Sc]
-5.2 -8.5 78 -13 -13 1030.0 1029.8 -3.9
18 18.02 В 6 н/о {снег} 10/10 600 м
[Sc]
-6.6 -10.4 74 -15 -15 1029.2 1029.0 -3.9
21 18.02 ЮВ 5 н/о 10/10 600 м
[Sc]
-7.6 -12.7 67 -15 -15 1028.1 1027.9
00 19.02 ЮВ 4 н/о ясно -8.5 -13.4 68 -15 -15 1027.3 1027.1
03 19.02 В 2 н/о 6/0
[Ac trans]
-10.9 -14.8 73 -15 -15 1026.7 1026.5 6
06 19.02 В 3 10 км 4/0
[Ci fib]
-8.7 -13.6 68 -14 -12 1026.1 1025.9 -11.1 0.0
09 19.02 ЮВ 4 10 км 4/0
[Ci fib]
-3.7 -9.5 64 -10 -6 1024.7 1024.5
12 19.02 В 5 10 км 4/0
[Ac trans]
-0.9 -7.1 63 -7 -6 1022.9 1022.7
15 19.02 ЮВ 2 н/о 4/0
[Ac trans]
-4.7 -7.9 78 -9 -9 1022.9 1022.7 -0.7
18 19.02 ЮВ 2 н/о ясно -8.5 -9.6 92 -13 -13 1022.2 1022.0 -0.7
21 19.02 В 1 н/о ясно -9.5 -10.7 91 -12 -12 1021.6 1021.4
00 20.02 В 2 н/о ясно -11.0 -11.9 93 -16 -16 1020.6 1020.4
03 20.02 В 1 н/о [диам. изморози 1 мм] 6/0
[Ac trans]
-11.2 -12.2 92 -13 -13 1019.6 1019.4 6
06 20.02 штиль 0 10 км 8/8 600 м
[Sc]
-7.2 -8.5 90 -8 -7 1019.8 1019.6 -11.2
09 20.02 ЮЗ 2 10 км 10/10 600 м
[Sc]
-4.5 -6.9 83 -9 -9 1019.4 1019.2
12 20.02 ЮЗ 4 10 км 10/10 600 м
[Sc]
-4.2 -6.9 81 -10 -10 1019.2 1019.0
15 20.02 ЮЗ 2 н/о ясно -8.6 -10.1 89 -13 -13 1020.0 1019.8 -3.3
18 20.02 З 2 н/о ясно -12.8 -14.1 90 -17 -17 1021.0 1020.8 -3.3
21 20.02 З 2 н/о ясно -15.4 -17.3 85 -20 -20 1021.7 1021.5

 

Местоположение метеостанции Тайпак (Западно-Казахстанская область, Казахстан): широта 49.05 долгота 51.87 высота над уровнем моря 2 м.

В архиве по умолчанию представлена погода в Тайпаке за последнюю неделю. Архивные данные за месяц целиком и за предыдущие месяцы, начиная с января 2011 года, Вы можете получить, выбрав интересующий диапазон дат из раскрывающегося списка и нажав кнопку "Ввод!".

Внимание! Время в таблицах - всемирное. Для получения местного времени необходимо прибавить поправку, которая в Тайпаке равна 5 ч.

Смотрите также архив погоды в соседних городах и на ближайших метеорологических станциях:

Погода в Индерборском (Атырауская область, Казахстан) (62 км)
Погода в Карабау (Атырауская область, Казахстан) (102 км)
Погода в Жангала (Западно-Казахстанская область, Казахстан) (116 км)
Погода в Каратобе (Западно-Казахстанская область, Казахстан) (131 км)
Погода в Чапаево (Западно-Казахстанская область, Казахстан) (137 км)
Погода в Джамбейты (Западно-Казахстанская область, Казахстан) (143 км)
Погода в Махамбете (Атырауская область, Казахстан) (155 км)
Погода в Жалпактале (Западно-Казахстанская область, Казахстан) (186 км)
Погода в Макате (Атырауская область, Казахстан) (189 км)
Погода в Анкаты (Западно-Казахстанская область, Казахстан) (198 км)

Пояснения к столбцам:

Ветер - указаны скорость ветра в м/с - средняя за 10 мин, порывы в срок и между сроками (в фигурных скобках) и направление, откуда дует ветер: С - северный, СВ - северо-восточный, В - восточный, ЮВ - юго-восточный, Ю - южный, ЮЗ - юго-западный, З - западный, СЗ - северо-западный.
Видимость - горизонтальная дальность видимости в метрах или километрах. При видимости от 1 до 10 км при отсутствии осадков обычно наблюдается дымка, при ухудшении видимости до 1 км и менее - туман. В сухую погоду видимость может ухудшаться дымом, пылью или мглою.
Явления - указаны атмосферные явления, наблюдавшиеся в срок или в последний час перед сроком; фигурными скобками обозначены явления, наблюдавшиеся между сроками (за 1-3 часа до срока); квадратными скобками обозначены град или гололедные отложения с указанием их диаметра в мм.
Облачность - указаны через наклонную черту общая и нижняя облачность в баллах и высота нижней границы облаков в метрах; квадратными скобками обозначены формы облаков: Ci - перистые, Cs - перисто-слоистые, Cc - перисто-кучевые, Ac - высококучевые, As - высокослоистые, Sc - слоисто-кучевые, Ns - слоисто-дождевые, Cu - кучевые, Cb - кучево-дождевые. Подробнее классификацию облаков см. в Атласе облаков (PDF).
T - Температура воздуха - температура, измеренная на высоте 2 м над землей.
Td - Температура точки росы - температура, при понижении до которой содержащийся в воздухе водяной пар достигнет насыщения.
f - Относительная влажность воздуха - влажноcть воздуха, измеренная на высоте 2 м над землей.
Te - Эффективная температура - температура, которую ощущает одетый по сезону человек в тени. Характеристика душности погоды. При расчете учитывается влияние влажности воздуха и скорости ветра на теплоощущения человека.
Tes - Эффективная температура на солнце - температура, которую ощущает человек, с поправкой на солнечный нагрев. Характеристика знойности погоды. Зависит от высоты солнца над горизонтом, облачности и скорости ветра. Ночью, в пасмурную погоду, а также при ветре 12 м/с и более поправка равна нулю.
P - Атмосферное давление - приведенное к уровню моря атмосферное давление.
Po - Атмосферное давление - измеренное на уровне метеостанции атмосферное давление.
Tmin - Минимальная температура - минимум температуры воздуха на высоте 2 м над землей.
Tmax - Максимальная температура - максимум температуры воздуха на высоте 2 м над землей.
R - Количество осадков - Количество выпавших осадков за период времени, мм. При наведении курсора мыши на число - период времени, за который выпало указанное количество осадков.
R24 - Количество осадков - Количество выпавших осадков за 24 часа, мм.
S - Снежный покров - Высота снежного покрова, см. При наведении курсора мыши на число - состояние снежного покрова и степень покрытия местности в баллах.